Кушка

Turkmenistan     35˚16′01″N   62˚19′58″E
temp.,
°C
wind,
m/s
gust,
m/s
humid.,
%
clouds,
%
prec.,
mm/h
press.,
hPa
HPBL,
m
3 december, thu
thu323:00+6˚n125622 0.0 102622
02:00+5˚nnw125551 0.0 102522
05:00+5˚n125673 0.0 102522
08:00+5˚nne1255100 0.0 102622
11:00+7˚nnw2245100 0.0 1027427
14:00+5˚nne4465100 0.3 1025413
17:00+6˚nne346699 0.3 1025367
20:00+5˚n126797 0.0 1027149
4 december, fri
fri423:00+5˚n246588 0.0 1027270
02:00+5˚n466798 0.0 1027553
05:00+4˚nne457699 0.0 1028501
08:00+3˚nne2388100 0.0 1029293
11:00+4˚nne3387100 0.1 1030304
14:00+4˚nne4586100 0.2 1028362
17:00+4˚ne4678100 0.3 1028449
20:00+3˚ne357990 0.0 1029336
5 december, sat
sat523:00+3˚nne247792 0.0 1029358
02:00+4˚nne2471100 0.0 1027373
05:00+4˚nne3464100 0.0 1026362
08:00+3˚ne3458100 0.0 1027343
11:00+4˚nne3361100 0.0 1026426
14:00+6˚ne346076 0.0 1023714
17:00+7˚ne336067 0.0 1023828
20:00+6˚nne236479 0.0 1024215
6 december, sun
sun623:00+4˚nne226989 0.0 102529
02:00+3˚ne127110 0.0 102422
05:00+2˚ne226647 0.0 102322
08:00+2˚nne1265100 0.0 102322
11:00+5˚nne2253100 0.0 1023278
14:00+7˚nne2250100 0.0 1020471
17:00+5˚n2374100 2.1 1019275
20:00+3˚n4490100 4.9 1022350
7 december, mon
mon723:00+2˚n3395100 8.9 1023213
02:00+3˚nnw2294100 3.3 1023213
05:00+1˚nnw4695100 3.8 1024306
08:00−1˚nnw5796100 1.3 1027347
11:00nnw4594100 2.3 1028331
14:00n2494100 1.1 1027307
17:00nw3495100 1.7 1027269
20:00+1˚n3498100 0.6 1028178